Weather History for Grants-Milan, NM

Change the Weather History Date:

Tuesday, February 19, 2013

  Actual Average Record
Temperature  
Mean Temperature 32 °F -  
Max Temperature 57 °F 52 °F 72 °F (1981)
Min Temperature 7 °F 20 °F 2 °F (1991)
Degree Days  
Heating Degree Days 33    
Moisture  
Dew Point 2 °F    
Average Humidity 33    
Maximum Humidity 67    
Minimum Humidity 10    
Precipitation  
Precipitation 0.00 in - - ()
Sea Level Pressure  
Sea Level Pressure 29.92 in    
Wind  
Wind Speed 5 mph (South)    
Max Wind Speed 17 mph    
Max Gust Speed 25 mph    
Visibility 10 miles    
Events      
Averages and records for this station are not official NWS values.
T = Trace of Precipitation, MM = Missing Value Source: NWS Daily Summary

Daily Weather History Graph

Daily Weather History Graph

Search for Another Location

Airport:

Trip Planner

Search our weather history database for the weather conditions in past years. The results will help you decide how hot, cold, wet, or windy it might be!

Date:

Astronomy

Feb. 19, 2013 Rise Set
Actual Time 6:52 AM MST 5:58 PM MST
Civil Twilight 6:27 AM MST 6:24 PM MST
Nautical Twilight 5:57 AM MST 6:53 PM MST
Astronomical Twilight 5:28 AM MST 7:23 PM MST
Moon 12:39 PM MST (2/19) 2:20 AM MST (2/19)
Length of Visible Light 11h 56m
Length of Day
11h 05m
Waxing Gibbous, 68% of the Moon is Illuminated
Feb 19
Waxing Gibbous
Feb 25
Full
Mar 4
Last Quarter
Mar 11
New
Mar 19
First Quarter

Hourly Weather History & Observations

Time (MST) Temp. Windchill Dew Point Humidity Pressure Visibility Wind Dir Wind Speed Gust Speed Precip Events Conditions
12:15 AM 21.6 °F 14.0 °F -0.0 °F 39% 30.10 in 10.0 mi WNW 5.8 mph - N/A   Clear
12:35 AM 18.9 °F - -0.9 °F 42% 30.10 in 10.0 mi Calm Calm - N/A   Clear
12:55 AM 15.1 °F - -0.8 °F 50% 30.10 in 10.0 mi Calm Calm - N/A   Clear
1:15 AM 16.0 °F - -3.1 °F 43% 30.10 in 10.0 mi Calm Calm - N/A   Clear
1:35 AM 15.4 °F - -1.3 °F 48% 30.10 in 10.0 mi Calm Calm - N/A   Clear
1:55 AM 12.9 °F - -1.7 °F 52% 30.10 in 10.0 mi Calm Calm - N/A   Clear
2:15 AM 14.0 °F 6.5 °F -4.0 °F 45% 30.09 in 10.0 mi NW 4.6 mph - N/A   Clear
2:35 AM 12.9 °F 3.8 °F -3.8 °F 47% 30.09 in 10.0 mi NW 5.8 mph - N/A   Clear
2:55 AM 13.8 °F 4.9 °F -5.1 °F 43% 30.08 in 10.0 mi WNW 5.8 mph - N/A   Clear
3:15 AM 14.7 °F - -4.4 °F 43% 30.07 in 10.0 mi Calm Calm - N/A   Clear
3:35 AM 14.0 °F - -4.2 °F 44% 30.06 in 10.0 mi Calm Calm - N/A   Clear
3:55 AM 12.2 °F - -5.3 °F 46% 30.06 in 10.0 mi Calm Calm - N/A   Clear
4:15 AM 11.3 °F 5.1 °F -4.9 °F 48% 30.06 in 10.0 mi NNW 3.5 mph - N/A   Clear
4:35 AM 9.5 °F 3.0 °F -6.0 °F 50% 30.06 in 10.0 mi NNW 3.5 mph - N/A   Clear
4:55 AM 9.1 °F 0.8 °F -5.3 °F 52% 30.05 in 10.0 mi WNW 4.6 mph - N/A   Clear
5:15 AM 11.8 °F 2.5 °F -5.1 °F 47% 30.04 in 10.0 mi NW 5.8 mph - N/A   Clear
5:35 AM 10.8 °F 1.2 °F -6.2 °F 47% 30.04 in 10.0 mi North 5.8 mph - N/A   Clear
5:55 AM 9.5 °F 3.0 °F -7.4 °F 46% 30.04 in 10.0 mi NNW 3.5 mph - N/A   Clear
6:15 AM 9.7 °F 3.2 °F -6.3 °F 48% 30.04 in 10.0 mi NW 3.5 mph - N/A   Clear
6:35 AM 7.9 °F 1.2 °F -7.1 °F 51% 30.04 in 10.0 mi NNW 3.5 mph - N/A   Clear
6:55 AM 9.5 °F 3.0 °F -5.4 °F 51% 30.04 in 10.0 mi WNW 3.5 mph - N/A   Clear
7:15 AM 9.7 °F 1.4 °F -5.6 °F 50% 30.04 in 10.0 mi NW 4.6 mph - N/A   Clear
7:35 AM 12.7 °F 6.7 °F -4.7 °F 46% 30.04 in 10.0 mi NW 3.5 mph - N/A   Clear
7:55 AM 15.8 °F - -4.0 °F 41% 30.04 in 10.0 mi Calm Calm - N/A   Clear
8:15 AM 18.9 °F - -3.1 °F 38% 30.04 in 10.0 mi North - - N/A   Clear
8:35 AM 22.8 °F - -1.5 °F 35% 30.04 in 10.0 mi Calm Calm - N/A   Clear
8:55 AM 29.7 °F - -0.6 °F 27% 30.04 in 10.0 mi Calm Calm - N/A   Clear
9:15 AM 35.1 °F 29.3 °F -1.1 °F 22% 30.02 in 10.0 mi East 6.9 mph - N/A   Clear
9:35 AM 40.5 °F 32.5 °F -5.3 °F 14% 30.01 in 10.0 mi SE 15.0 mph - N/A   Clear
9:55 AM 41.5 °F 35.4 °F -4.7 °F 14% 30.00 in 10.0 mi SSE 10.4 mph - N/A   Clear
10:15 AM 44.4 °F 36.9 °F -5.8 °F 12% 29.98 in 10.0 mi SSE 17.3 mph 20.7 mph N/A   Clear
10:35 AM 45.3 °F 38.4 °F -5.4 °F 12% 29.98 in 10.0 mi SE 16.1 mph 21.9 mph N/A   Clear
10:55 AM 46.6 °F - -4.2 °F 12% 29.96 in 10.0 mi SE 13.8 mph 21.9 mph N/A   Clear
11:15 AM 47.1 °F - -3.6 °F 12% 29.95 in 10.0 mi SE 15.0 mph 21.9 mph N/A   Clear
11:35 AM 48.6 °F - -2.4 °F 12% 29.93 in 10.0 mi SE 13.8 mph - N/A   Clear
11:55 AM 49.8 °F - -1.3 °F 12% 29.91 in 10.0 mi SE 15.0 mph 18.4 mph N/A   Clear
12:15 PM 50.5 °F - -1.3 °F 12% 29.90 in 10.0 mi SE 12.7 mph 21.9 mph N/A   Clear
12:35 PM 52.7 °F - -0.2 °F 11% 29.88 in 10.0 mi SE 12.7 mph 20.7 mph N/A   Clear
12:55 PM 53.1 °F - -0.2 °F 11% 29.86 in 10.0 mi ESE 15.0 mph 24.2 mph N/A   Clear
1:15 PM 52.2 °F - -0.2 °F 12% 29.84 in 10.0 mi SE 12.7 mph 23.0 mph N/A   Clear
1:35 PM 53.2 °F - 0.3 °F 12% 29.83 in 10.0 mi ESE 16.1 mph 21.9 mph N/A   Clear
1:55 PM 54.5 °F - 0.3 °F 11% 29.82 in 10.0 mi South 13.8 mph 25.3 mph N/A   Clear
2:15 PM 54.5 °F - 0.5 °F 11% 29.81 in 10.0 mi SSE 15.0 mph 21.9 mph N/A   Clear
2:35 PM 53.8 °F - -0.4 °F 11% 29.80 in 10.0 mi SE 10.4 mph 21.9 mph N/A   Clear
2:55 PM 53.6 °F - -0.6 °F 11% 29.80 in 10.0 mi SE 12.7 mph 18.4 mph N/A   Clear
3:15 PM 53.8 °F - -0.0 °F 11% 29.79 in 10.0 mi SE 13.8 mph 21.9 mph N/A   Scattered Clouds
3:35 PM 54.1 °F - 0.3 °F 11% 29.78 in 10.0 mi South 11.5 mph 19.6 mph N/A   Scattered Clouds
3:55 PM 55.8 °F - 0.9 °F 11% 29.78 in 10.0 mi SW 10.4 mph 20.7 mph N/A   Clear
4:15 PM 57.2 °F - 1.4 °F 10% 29.77 in 10.0 mi SW 15.0 mph 20.7 mph N/A   Clear
4:35 PM 56.8 °F - 2.1 °F 11% 29.76 in 10.0 mi SW 10.4 mph 18.4 mph N/A   Clear
5:35 PM 51.8 °F - 2.1 °F 13% 29.75 in 10.0 mi SW 9.2 mph - N/A   Clear
5:55 PM 48.2 °F - 1.8 °F 15% 29.76 in 10.0 mi WSW 6.9 mph - N/A   Clear
6:55 PM 34.0 °F - 2.1 °F 26% 29.75 in 10.0 mi Calm Calm - N/A   Clear
7:15 PM 29.7 °F - 1.9 °F 31% 29.76 in 10.0 mi Calm Calm - N/A   Scattered Clouds
7:35 PM 33.4 °F - 4.8 °F 30% 29.75 in 10.0 mi Calm Calm - N/A   Scattered Clouds
7:55 PM 32.4 °F 29.1 °F 3.4 °F 29% 29.75 in 10.0 mi SE 3.5 mph - N/A   Clear
8:15 PM 32.5 °F 29.3 °F 6.1 °F 33% 29.76 in 10.0 mi SSW 3.5 mph - N/A   Clear
8:35 PM 31.3 °F 25.6 °F 6.6 °F 35% 29.76 in 10.0 mi South 5.8 mph - N/A   Mostly Cloudy
8:55 PM 39.9 °F 35.1 °F 14.4 °F 35% 29.77 in 10.0 mi SW 6.9 mph - N/A   Overcast
9:15 PM 44.4 °F 39.0 °F 23.0 °F 43% 29.77 in 10.0 mi SW 10.4 mph - N/A   Scattered Clouds
9:35 PM 42.8 °F 40.1 °F 24.3 °F 48% 29.77 in 10.0 mi SW 4.6 mph - N/A   Clear
9:55 PM 41.4 °F 38.4 °F 25.7 °F 54% 29.76 in 10.0 mi South 4.6 mph - N/A   Clear
10:15 PM 38.1 °F - 24.3 °F 57% 29.76 in 10.0 mi Calm Calm - N/A   Clear
10:35 PM 39.0 °F 36.8 °F 26.1 °F 60% 29.76 in 10.0 mi SE 3.5 mph - N/A   Scattered Clouds
10:55 PM 38.1 °F - 24.3 °F 57% 29.75 in 10.0 mi Calm Calm - N/A   Scattered Clouds
11:15 PM 36.9 °F 32.2 °F 25.0 °F 62% 29.75 in 10.0 mi SSE 5.8 mph - N/A   Clear
11:35 PM 38.7 °F 33.6 °F 27.9 °F 65% 29.75 in 10.0 mi ESE 6.9 mph - N/A   Clear
11:55 PM 38.7 °F 36.3 °F 28.4 °F 67% 29.75 in 10.0 mi South 3.5 mph - N/A   Scattered Clouds